| time (UTC) | temp F | wind direction | speed knots | gust knots | rain 1hr in | rain 24hr in | rain mn in | humidity % | barometer mb |
| 20260902014501 | 56 | 360 | 0.0 | 1.7 | 0.00 | 0.00 | 0.00 | 65 | 1019.9 |
| 20260902011501 | 57 | 360 | 0.9 | 4.3 | 0.00 | 0.00 | 0.00 | 65 | 1019.8 |
| 20260902010007 | 57 | 360 | 0.9 | 5.2 | 0.00 | 0.00 | 0.00 | 65 | 1019.7 |
| 20260902004501 | 57 | 218 | 1.7 | 5.2 | 0.00 | 0.00 | 0.00 | 65 | 1019.9 |
| 20260902003002 | 57 | 214 | 1.7 | 5.2 | 0.00 | 0.00 | 0.00 | 65 | 1020.1 |
| 20260902001501 | 57 | 257 | 0.9 | 3.5 | 0.00 | 0.00 | 0.00 | 65 | 1020.2 |
| 20260901233004 | 57 | 213 | 0.9 | 4.3 | 0.00 | 0.00 | 0.00 | 65 | 1020.1 |
| 20260901231503 | 57 | 360 | 1.7 | 4.3 | 0.00 | 0.00 | 0.00 | 65 | 1020.2 |
| 20260901230012 | 57 | 204 | 0.9 | 3.5 | 0.00 | 0.00 | 0.00 | 65 | 1020.3 |
| 20260901224502 | 57 | 360 | 0.9 | 3.5 | 0.00 | 0.00 | 0.00 | 65 | 1020.4 |
| 20260901223006 | 58 | 360 | 0.9 | 4.3 | 0.00 | 0.00 | 0.00 | 65 | 1020.2 |
| 20260901220008 | 59 | 360 | 1.7 | 5.2 | 0.00 | 0.00 | 0.00 | 65 | 1020.3 |
| 20260901211503 | 60 | 229 | 3.5 | 7.8 | 0.00 | 0.00 | 0.00 | 65 | 1020.6 |
| 20260901210009 | 60 | 248 | 2.6 | 7.0 | 0.00 | 0.00 | 0.00 | 65 | 1020.5 |
| 20260901204504 | 60 | 360 | 0.9 | 3.5 | 0.00 | 0.00 | 0.00 | 65 | 1020.5 |
| 20260901203007 | 60 | 360 | 0.9 | 3.5 | 0.00 | 0.00 | 0.00 | 65 | 1020.5 |
| 20260901201502 | 61 | 360 | 0.0 | 0.9 | 0.00 | 0.00 | 0.00 | 65 | 1020.5 |
| 20260901200006 | 61 | 360 | 2.6 | 5.2 | 0.00 | 0.00 | 0.00 | 65 | 1020.5 |
| 20260901194504 | 61 | 286 | 3.5 | 7.0 | 0.00 | 0.00 | 0.00 | 65 | 1020.4 |
| 20260901193004 | 61 | 241 | 2.6 | 7.8 | 0.00 | 0.00 | 0.00 | 65 | 1020.3 |
| 20260901191504 | 62 | 266 | 4.3 | 8.7 | 0.00 | 0.00 | 0.00 | 65 | 1020.2 |
| 20260901184503 | 62 | 277 | 3.5 | 9.6 | 0.00 | 0.00 | 0.00 | 65 | 1020.3 |
| 20260901183004 | 62 | 248 | 3.5 | 10.4 | 0.00 | 0.00 | 0.00 | 65 | 1020.2 |
| 20260901180007 | 62 | 360 | 1.7 | 6.1 | 0.00 | 0.00 | 0.00 | 65 | 1020.1 |
| 20260901174504 | 63 | 360 | 6.1 | 12.2 | 0.00 | 0.00 | 0.00 | 65 | 1020.2 |
| 20260901173006 | 66 | 259 | 5.2 | 10.4 | 0.00 | 0.00 | 0.00 | 100 | 1019.8 |
| 20260901171504 | 66 | 264 | 6.1 | 11.3 | 0.00 | 0.00 | 0.00 | 100 | 1020.1 |
| 20260901170009 | 66 | 294 | 6.1 | 13.0 | 0.00 | 0.00 | 0.00 | 100 | 1019.8 |
| 20260901164503 | 67 | 273 | 3.5 | 9.6 | 0.00 | 0.00 | 0.00 | 100 | 1019.6 |
| 20260901163004 | 69 | 319 | 6.1 | 12.2 | 0.00 | 0.00 | 0.00 | 100 | 1020.0 |
| 20260901161506 | 68 | 224 | 6.1 | 12.2 | 0.00 | 0.00 | 0.00 | 100 | 1020.0 |
| 20260901160006 | 68 | 235 | 6.1 | 13.9 | 0.00 | 0.00 | 0.00 | 100 | 1019.8 |
| 20260901154502 | 66 | 257 | 7.0 | 14.8 | 0.00 | 0.00 | 0.00 | 100 | 1019.9 |
| 20260901153004 | 67 | 263 | 5.2 | 13.0 | 0.00 | 0.00 | 0.00 | 100 | 1020.1 |
| 20260901144502 | 67 | 288 | 7.0 | 14.8 | 0.00 | 0.00 | 0.00 | 100 | 1020.1 |
| 20260901143003 | 68 | 277 | 6.1 | 11.3 | 0.00 | 0.00 | 0.00 | 100 | 1020.2 |
| 20260901134503 | 69 | 256 | 7.8 | 13.9 | 0.00 | 0.00 | 0.00 | 100 | 1020.1 |
| 20260901131504 | 69 | 242 | 6.1 | 13.9 | 0.00 | 0.00 | 0.00 | 100 | 1020.3 |
| 20260901130007 | 68 | 279 | 6.1 | 10.4 | 0.00 | 0.00 | 0.00 | 100 | 1020.3 |
| 20260901124503 | 69 | 247 | 7.0 | 13.0 | 0.00 | 0.00 | 0.00 | 100 | 1020.3 |
| 20260901123002 | 69 | 310 | 4.3 | 11.3 | 0.00 | 0.00 | 0.00 | 100 | 1020.5 |
| 20260901121501 | 69 | 269 | 6.1 | 12.2 | 0.00 | 0.00 | 0.00 | 100 | 1020.6 |
| 20260901114503 | 68 | 275 | 7.8 | 13.0 | 0.00 | 0.00 | 0.00 | 100 | 1020.4 |
| 20260901113002 | 69 | 229 | 4.3 | 10.4 | 0.00 | 0.00 | 0.00 | 100 | 1020.4 |
| 20260901110006 | 67 | 273 | 5.2 | 10.4 | 0.00 | 0.00 | 0.00 | 100 | 1020.5 |
| 20260901104502 | 66 | 223 | 6.1 | 13.0 | 0.00 | 0.00 | 0.00 | 100 | 1020.7 |
| 20260901103002 | 65 | 244 | 6.1 | 13.0 | 0.00 | 0.00 | 0.00 | 65 | 1020.8 |
| 20260901101502 | 65 | 265 | 7.0 | 13.9 | 0.00 | 0.00 | 0.00 | 65 | 1020.5 |
| 20260901100006 | 64 | 277 | 6.1 | 12.2 | 0.00 | 0.00 | 0.00 | 65 | 1021.0 |
| 20260901094501 | 64 | 252 | 4.3 | 10.4 | 0.00 | 0.00 | 0.00 | 65 | 1021.0 |
| 20260901093003 | 64 | 288 | 3.5 | 10.4 | 0.00 | 0.00 | 0.00 | 65 | 1021.2 |
| 20260901091502 | 63 | 287 | 4.3 | 7.0 | 0.00 | 0.00 | 0.00 | 65 | 1021.1 |
| 20260901083004 | 61 | 231 | 2.6 | 7.8 | 0.00 | 0.00 | 0.00 | 65 | 1021.1 |
| 20260901081501 | 60 | 270 | 3.5 | 7.8 | 0.00 | 0.00 | 0.00 | 65 | 1021.1 |
| 20260901080007 | 60 | 261 | 4.3 | 7.8 | 0.00 | 0.00 | 0.00 | 65 | 1021.1 |
| 20260901073001 | 55 | 209 | 0.9 | 2.6 | 0.00 | 0.00 | 0.00 | 65 | 1020.9 |
| 20260901071501 | 53 | 360 | 0.9 | 3.5 | 0.00 | 0.00 | 0.00 | 65 | 1021.0 |
| 20260901070007 | 52 | 208 | 0.9 | 3.5 | 0.00 | 0.00 | 0.00 | 65 | 1020.8 |
| 20260901064502 | 51 | 360 | 0.0 | 2.6 | 0.00 | 0.01 | 0.00 | 65 | 1020.7 |
| 20260901063003 | 50 | 271 | 0.0 | 0.0 | 0.00 | 0.01 | 0.00 | 65 | 1020.6 |
| 20260901061501 | 49 | 271 | 0.0 | 0.0 | 0.00 | 0.01 | 0.00 | 65 | 1020.5 |
| 20260901060005 | 49 | 271 | 0.0 | 0.0 | 0.00 | 0.01 | 0.00 | 65 | 1020.4 |
| 20260901054501 | 49 | 271 | 0.0 | 0.0 | 0.00 | 0.01 | 0.00 | 65 | 1020.3 |
| 20260901053002 | 49 | 272 | 0.0 | 0.0 | 0.00 | 0.01 | 0.00 | 65 | 1020.3 |
| 20260901050004 | 50 | 271 | 0.0 | 0.0 | 0.00 | 0.01 | 0.00 | 65 | 1020.3 |
| 20260901044502 | 50 | 271 | 0.0 | 0.0 | 0.00 | 0.01 | 0.00 | 65 | 1020.1 |
| 20260901043002 | 51 | 271 | 1.7 | 3.5 | 0.00 | 0.01 | 0.00 | 65 | 1020.1 |
| 20260901041501 | 51 | 271 | 2.6 | 3.5 | 0.00 | 0.01 | 0.00 | 65 | 1020.0 |
| 20260901040004 | 50 | 275 | 1.7 | 5.2 | 0.00 | 0.01 | 0.00 | 65 | 1020.0 |
| 20260901034502 | 50 | 257 | 0.0 | 2.6 | 0.00 | 0.01 | 0.00 | 65 | 1020.0 |
| 20260901033004 | 50 | 256 | 0.0 | 0.0 | 0.00 | 0.01 | 0.00 | 65 | 1019.9 |
| 20260901031505 | 51 | 256 | 0.0 | 0.9 | 0.00 | 0.01 | 0.00 | 65 | 1019.9 |
| 20260901030007 | 51 | 254 | 0.9 | 2.6 | 0.00 | 0.01 | 0.00 | 65 | 1020.0 |
| 20260901024501 | 51 | 252 | 0.0 | 2.6 | 0.00 | 0.01 | 0.00 | 65 | 1019.8 |
| 20260901023001 | 52 | 252 | 0.0 | 0.0 | 0.00 | 0.01 | 0.00 | 65 | 1019.9 |
| 20260901021501 | 52 | 360 | 0.0 | 0.0 | 0.00 | 0.01 | 0.00 | 65 | 1020.0 |